Weather Roundup
Issued by NWS Chicago, IL

Home | Current Version | Previous Version | Text Only | Print | Product List | Glossary Off
Versions: 1 2 3 4 5 6 7 8 9 10 11 12 13 14 15 16 17 18 19 20 21 22 23 24 25 26 27 28 29 30 31 32 33 34 35 36 37 38 39 40 41 42 43 44 45 46 47 48 49 50

000
NZUS59 KLOT 221503
HRRLOT

CHICAGO AREA WEATHER ROUNDUP
NATIONAL WEATHER SERVICE CHICAGO/ROMEOVILLE IL
1000 AM CDT TUE AUG 22 2017

NOTE: "FAIR" INDICATES FEW OR NO CLOUDS BELOW 12,000 FEET WITH NO
SIGNIFICANT WEATHER AND/OR OBSTRUCTIONS TO VISIBILITY.

* THESE STATIONS ARE NOT UNDER NWS QUALITY CONTROL. THEY ALSO MAY NOT
  REPORT WEATHER SUCH AS PRECIPITATION OR FOG.

ILZ005-006-012>014-019>023-221600-
NORTHEAST ILLINOIS

CITY           SKY/WX    TMP DP  RH WIND       PRES   REMARKS
OHARE          CLOUDY    74  64  71 W16       29.86S
MIDWAY         CLOUDY    73  67  81 W9        29.87S
AURORA         CLOUDY    71  67  87 W16       29.90S
LANSING*       CLOUDY    72  65  78 W12       29.88S
JOLIET*        CLOUDY    73  69  85 W7        29.89S
WAUKEGAN       CLOUDY    70  64  81 VRB7      29.86R
DUPAGE AIRPORT CLOUDY    71  67  87 W13       29.88S
WHEELING       CLOUDY    73  65  75 W9        29.88S
MORRIS*        CLOUDY    72  67  85 NW14      29.89R
NORTHERLY ISL    N/A     73  65  75 W8          N/A
$$

WIZ051-052-058>065-066-070>072-221600-
SOUTHEAST WISCONSIN

CITY           SKY/WX    TMP DP  RH WIND       PRES   REMARKS
MILWAUKEE      CLOUDY    72  63  73 W12G21    29.84S
KENOSHA*       CLOUDY    71  62  73 W17G24    29.86S
RACINE*        CLOUDY    72  64  76 W13G22    29.86S
WAUKESHA       CLOUDY    70  61  73 W21G26    29.87R
$$

INZ001>003-010>013-019-020-221600-
NORTHWEST INDIANA

CITY           SKY/WX    TMP DP  RH WIND       PRES   REMARKS
GARY*          CLOUDY    73  68  83 W12G23    29.87F
MICHIGAN CITY* NOT AVBL
RENSSELAER*    NOT AVBL
VALPARAISO     CLOUDY    74  69  85 SW14      29.88F
$$

LMZ740>746-221600-
SOUTHERN LAKE MICHIGAN

STATION/POSITION TIME  SKY/WX   TEMP WIND        PRES    VSBY
                                AIR  DIR/SP/G
                 (UTC)          (F)  (DEG/KT/KT) (MB)    (MI)
HARRISON CRIB    1440            73  280/ 17/ 20   N/A
BURNHAM HARBOR   NOT AVBL
CALUMET HARBOR   1430            72  230/  6/ 12 1010.6F
BURNS HARBOR     1430            72  240/ 14/ 17 1011.9F
MICHIGAN CITY    1440            71  220/ 18/ 20   N/A
$$

ABBREVIATIONS USED IN REMARKS
   TC - TEMPERATURE IN CELSIUS
  WCI - WIND CHILL INDEX
   HX - HEAT INDEX
  VSB - VISIBILITY
$$



USA.gov is the U.S. government's official web portal to all federal, state and local government web resources and services.